IRIDIUM 106 1 41917U 17003A 25188.85761807 .00000055 00000-0 12540-4 0 9995 2 41917 86.3960 232.3650 0001922 84.5525 275.5890 14.34217869443855 IRIDIUM 103 1 41918U 17003B 25188.63562899 .00000016 00000-0 -12018-5 0 9991 2 41918 86.3962 232.3583 0002613 81.1636 278.9855 14.34217675443849 IRIDIUM 109 1 41919U 17003C 25188.85127630 .00000075 00000-0 19594-4 0 9995 2 41919 86.3961 232.3223 0002524 92.7496 267.3989 14.34218066443848 IRIDIUM 102 1 41920U 17003D 25188.81956322 .00000058 00000-0 13732-4 0 9990 2 41920 86.3957 232.2661 0002375 95.4204 264.7263 14.34217731443924 IRIDIUM 105 1 41921U 17003E 25188.79029713 .00000134 00000-0 40714-4 0 9998 2 41921 86.3984 200.7514 0002462 86.3808 273.7669 14.34217639445770 IRIDIUM 104 1 41922U 17003F 25189.18109181 .00000046 00000-0 93217-5 0 9990 2 41922 86.3960 232.1527 0002754 91.5217 268.6294 14.34217604443962 IRIDIUM 114 1 41923U 17003G 25189.11766332 .00000171 00000-0 54167-4 0 9990 2 41923 86.3960 232.1634 0002434 86.1601 273.9873 14.34218996443950 IRIDIUM 108 1 41924U 17003H 25188.79711158 .00000067 00000-0 16884-4 0 9998 2 41924 86.3979 200.6487 0002125 91.4172 268.7267 14.34217899445745 IRIDIUM 112 1 41925U 17003J 25189.17475210 .00000192 00000-0 61375-4 0 9992 2 41925 86.3956 231.9975 0002358 93.4229 266.7237 14.34216737443993 IRIDIUM 111 1 41926U 17003K 25188.88298935 .00000083 00000-0 22589-4 0 9990 2 41926 86.3956 232.1823 0002252 88.4906 271.6548 14.34217813443905 IRIDIUM 113 1 42803U 17039A 25188.86295387 .00000015 00000-0 -17588-5 0 9990 2 42803 86.3974 106.1206 0002462 85.3376 274.8101 14.34217746421838 IRIDIUM 123 1 42804U 17039B 25188.90443214 .00000002 00000-0 -63059-5 0 9990 2 42804 86.3998 137.5673 0002113 75.7381 284.4049 14.34217539420605 IRIDIUM 120 1 42805U 17039C 25188.85661030 .00000034 00000-0 50774-5 0 9997 2 42805 86.3963 105.9503 0001891 81.1961 278.9449 14.34217754421822 IRIDIUM 115 1 42806U 17039D 25188.82162462 .00000275 00000-0 75799-4 0 9990 2 42806 86.4501 106.0465 0002237 65.3647 294.7787 14.43281287424591 IRIDIUM 118 1 42807U 17039E 25189.14544714 .00000078 00000-0 20851-4 0 9991 2 42807 86.3995 137.4660 0002466 86.3863 273.7614 14.34216788420642 IRIDIUM 117 1 42808U 17039F 25188.95517353 -.00000007 00000-0 -95604-5 0 9992 2 42808 86.3997 137.5066 0002275 77.8836 282.2614 14.34217453420644 IRIDIUM 126 1 42809U 17039G 25188.91077546 -.00000027 00000-0 -16605-4 0 9999 2 42809 86.3999 137.5707 0002363 81.6267 278.5196 14.34217420420612 IRIDIUM 124 1 42810U 17039H 25189.17143427 .00000273 00000-0 75206-4 0 9995 2 42810 86.4470 74.1941 0001983 83.1717 276.9710 14.43279735425491 IRIDIUM 128 1 42811U 17039J 25188.90151199 .00000039 00000-0 69982-5 0 9996 2 42811 86.4000 169.0469 0001954 83.4336 276.7082 14.34217973420635 IRIDIUM 121 1 42812U 17039K 25188.92980261 .00000001 00000-0 -67804-5 0 9990 2 42812 86.3999 137.5880 0002059 86.3910 273.7521 14.34217522420608 IRIDIUM 133 1 42955U 17061A 25188.93322528 .00000025 00000-0 18700-5 0 9996 2 42955 86.4003 169.1427 0002300 85.1033 275.0425 14.34218040405431 IRIDIUM 100 1 42956U 17061B 25189.20595262 .00000199 00000-0 64060-4 0 9996 2 42956 86.3999 168.9558 0002313 81.6608 278.4850 14.34217306405499 IRIDIUM 122 1 42957U 17061C 25189.17424381 .00000100 00000-0 28612-4 0 9991 2 42957 86.4000 168.9681 0002348 85.8909 274.2555 14.34217774405472 IRIDIUM 129 1 42958U 17061D 25189.19961527 .00000108 00000-0 31587-4 0 9995 2 42958 86.4002 169.0207 0002673 92.0082 268.1420 14.34218309405494 IRIDIUM 119 1 42959U 17061E 25189.23767078 .00000082 00000-0 22309-4 0 9999 2 42959 86.4002 168.9991 0002532 83.5124 276.6360 14.34218080405515 IRIDIUM 107 1 42960U 17061F 25188.97762401 .00000066 00000-0 16668-4 0 9999 2 42960 86.4002 169.1269 0002341 75.0027 285.1428 14.34218106405490 IRIDIUM 132 1 42961U 17061G 25188.91419770 .00000065 00000-0 16055-4 0 9991 2 42961 86.4001 169.1353 0002258 84.1833 275.9620 14.34218103405473 IRIDIUM 136 1 42962U 17061H 25189.22498525 -.00000012 00000-0 -11315-4 0 9990 2 42962 86.4007 169.0107 0002350 81.8645 278.2818 14.34217612405530 IRIDIUM 139 1 42963U 17061J 25189.02201944 .00000203 00000-0 65433-4 0 9996 2 42963 86.4003 169.1515 0002270 80.6982 279.4471 14.34219525405514 IRIDIUM 125 1 42964U 17061K 25188.93956942 .00000044 00000-0 85163-5 0 9997 2 42964 86.4005 169.2405 0002764 76.7011 283.4493 14.34217953405515